Location: L�Ave Maria
(50.7161°N, 1.5911°E)
Time: 13:17:02
(UTC+00:00)

Cosmos 2112 Rocket - Pass Details

Date: 10 July 2020
Orbit: 756 x 787 km, 74.0° (Epoch: 06 August)

Event Time Altitude Azimuth Distance (km) Brightness Sun altitude
Exits shadow 21:28:34 - 182° (S) 2,658 6.3 -10.0°
Reaches altitude 10° 21:29:25 10° 179° (S) 2,341 6.0 -10.1°
Maximum altitude 21:34:32 49° 106° (ESE) 1,015 4.3 -10.5°
Drops below altitude 10° 21:39:40 10° 33° (NNE) 2,359 6.9 -11.0°
Sets 21:42:08 0° 28° (NNE) 3,290 7.7 -11.2°
